Year,Month,Day,Hour,Minute,Value (Times are PST for temperature in C)
2017,11,23,00,00,15.60
2017,11,23,00,01,15.60
2017,11,23,00,02,15.60
2017,11,23,00,03,15.60
2017,11,23,00,04,15.60
2017,11,23,00,05,15.60
2017,11,23,00,06,15.60
2017,11,23,00,07,15.60
2017,11,23,00,08,15.60
2017,11,23,00,09,15.60
2017,11,23,00,10,15.60
2017,11,23,00,11,15.60
2017,11,23,00,12,15.60
2017,11,23,00,13,15.60
2017,11,23,00,14,15.60
2017,11,23,00,15,15.60
2017,11,23,00,16,15.60
2017,11,23,00,17,15.60
2017,11,23,00,18,15.60
2017,11,23,00,19,15.60
2017,11,23,00,20,15.60
2017,11,23,00,21,15.50
2017,11,23,00,22,15.50
2017,11,23,00,23,15.50
2017,11,23,00,24,15.40
2017,11,23,00,25,15.40
2017,11,23,00,26,15.40
2017,11,23,00,27,15.40
2017,11,23,00,28,15.40
2017,11,23,00,29,15.40
2017,11,23,00,30,15.40
2017,11,23,00,31,15.40
2017,11,23,00,32,15.30
2017,11,23,00,33,15.30
2017,11,23,00,34,15.30
2017,11,23,00,35,15.30
2017,11,23,00,36,15.30
2017,11,23,00,37,15.30
2017,11,23,00,38,15.30
2017,11,23,00,39,15.30
2017,11,23,00,40,15.30
2017,11,23,00,41,15.30
2017,11,23,00,42,15.30
2017,11,23,00,43,15.30
2017,11,23,00,44,15.30
2017,11,23,00,45,15.30
2017,11,23,00,46,15.20
2017,11,23,00,47,15.20
2017,11,23,00,48,15.20
2017,11,23,00,49,15.20
2017,11,23,00,50,15.20
2017,11,23,00,51,15.20
2017,11,23,00,52,15.10
2017,11,23,00,53,15.10
2017,11,23,00,54,15.10
2017,11,23,00,55,15.10
2017,11,23,00,56,15.00
2017,11,23,00,57,15.00
2017,11,23,00,58,15.00
2017,11,23,00,59,15.00
2017,11,23,01,00,15.00
2017,11,23,01,01,15.00
2017,11,23,01,02,15.00
2017,11,23,01,03,15.00
2017,11,23,01,04,14.90
2017,11,23,01,05,14.90
2017,11,23,01,06,14.90
2017,11,23,01,07,14.80
2017,11,23,01,08,14.90
2017,11,23,01,09,14.90
2017,11,23,01,10,14.80
2017,11,23,01,11,14.80
2017,11,23,01,12,14.80
2017,11,23,01,13,14.80
2017,11,23,01,14,14.70
2017,11,23,01,15,14.70
2017,11,23,01,16,14.80
2017,11,23,01,17,14.70
2017,11,23,01,18,14.70
2017,11,23,01,19,14.70
2017,11,23,01,20,14.70
2017,11,23,01,21,14.70
2017,11,23,01,22,14.70
2017,11,23,01,23,14.70
2017,11,23,01,24,14.70
2017,11,23,01,25,14.70
2017,11,23,01,26,14.70
2017,11,23,01,27,14.70
2017,11,23,01,28,14.50
2017,11,23,01,29,14.30
2017,11,23,01,30,14.30
2017,11,23,01,31,14.30
2017,11,23,01,32,14.20
2017,11,23,01,33,14.20
2017,11,23,01,34,14.20
2017,11,23,01,35,14.20
2017,11,23,01,36,14.20
2017,11,23,01,37,14.20
2017,11,23,01,38,14.20
2017,11,23,01,39,14.20
2017,11,23,01,40,14.20
2017,11,23,01,41,14.10
2017,11,23,01,42,14.20
2017,11,23,01,43,14.20
2017,11,23,01,44,14.20
2017,11,23,01,45,14.20
2017,11,23,01,46,14.30
2017,11,23,01,47,14.30
2017,11,23,01,48,14.20
2017,11,23,01,49,14.20
2017,11,23,01,50,14.30
2017,11,23,01,51,14.30
2017,11,23,01,52,14.20
2017,11,23,01,53,14.20
2017,11,23,01,54,14.20
2017,11,23,01,55,14.20
2017,11,23,01,56,14.10
2017,11,23,01,57,14.10
2017,11,23,01,58,14.00
2017,11,23,01,59,14.00
2017,11,23,02,00,13.90
2017,11,23,02,01,13.90
2017,11,23,02,02,13.90
2017,11,23,02,03,13.80
2017,11,23,02,04,13.80
2017,11,23,02,05,13.80
2017,11,23,02,06,13.80
2017,11,23,02,07,13.80
2017,11,23,02,08,13.70
2017,11,23,02,09,13.70
2017,11,23,02,10,13.70
2017,11,23,02,11,13.70
2017,11,23,02,12,13.70
2017,11,23,02,13,13.70
2017,11,23,02,14,13.70
2017,11,23,02,15,13.70
2017,11,23,02,16,13.60
2017,11,23,02,17,13.60
2017,11,23,02,18,13.60
2017,11,23,02,19,13.60
2017,11,23,02,20,13.60
2017,11,23,02,21,13.50
2017,11,23,02,22,13.50
2017,11,23,02,23,13.50
2017,11,23,02,24,13.40
2017,11,23,02,25,13.40
2017,11,23,02,26,13.30
2017,11,23,02,27,13.30
2017,11,23,02,28,13.30
2017,11,23,02,29,13.20
2017,11,23,02,30,13.10
2017,11,23,02,31,13.00
2017,11,23,02,32,12.90
2017,11,23,02,33,12.80
2017,11,23,02,34,12.80
2017,11,23,02,35,12.80
2017,11,23,02,36,12.80
2017,11,23,02,37,12.80
2017,11,23,02,38,12.80
2017,11,23,02,39,12.80
2017,11,23,02,40,12.80
2017,11,23,02,41,12.80
2017,11,23,02,42,12.90
2017,11,23,02,43,12.90
2017,11,23,02,44,12.90
2017,11,23,02,45,12.90
2017,11,23,02,46,12.90
2017,11,23,02,47,13.00
2017,11,23,02,48,13.10
2017,11,23,02,49,13.10
2017,11,23,02,50,13.20
2017,11,23,02,51,13.20
2017,11,23,02,52,13.20
2017,11,23,02,53,13.30
2017,11,23,02,54,13.30
2017,11,23,02,55,13.30
2017,11,23,02,56,13.40
2017,11,23,02,57,13.40
2017,11,23,02,58,13.40
2017,11,23,02,59,13.30
2017,11,23,03,00,13.30
2017,11,23,03,01,13.30
2017,11,23,03,02,13.20
2017,11,23,03,03,13.20
2017,11,23,03,04,13.10
2017,11,23,03,05,13.00
2017,11,23,03,06,13.00
2017,11,23,03,07,12.90
2017,11,23,03,08,12.90
2017,11,23,03,09,12.90
2017,11,23,03,10,12.80
2017,11,23,03,11,12.80
2017,11,23,03,12,12.80
2017,11,23,03,13,12.80
2017,11,23,03,14,12.70
2017,11,23,03,15,12.70
2017,11,23,03,16,12.70
2017,11,23,03,17,12.70
2017,11,23,03,18,12.60
2017,11,23,03,19,12.60
2017,11,23,03,20,12.60
2017,11,23,03,21,12.60
2017,11,23,03,22,12.50
2017,11,23,03,23,12.50
2017,11,23,03,24,12.40
2017,11,23,03,25,12.40
2017,11,23,03,26,12.40
2017,11,23,03,27,12.40
2017,11,23,03,28,12.30
2017,11,23,03,29,12.30
2017,11,23,03,30,12.20
2017,11,23,03,31,12.20
2017,11,23,03,32,12.20
2017,11,23,03,33,12.10
2017,11,23,03,34,12.10
2017,11,23,03,35,12.00
2017,11,23,03,36,12.00
2017,11,23,03,37,11.90
2017,11,23,03,38,11.90
2017,11,23,03,39,11.90
2017,11,23,03,40,11.90
2017,11,23,03,41,11.80
2017,11,23,03,42,11.80
2017,11,23,03,43,11.70
2017,11,23,03,44,11.70
2017,11,23,03,45,11.60
2017,11,23,03,46,11.60
2017,11,23,03,47,11.50
2017,11,23,03,48,11.50
2017,11,23,03,49,11.40
2017,11,23,03,50,11.40
2017,11,23,03,51,11.30
2017,11,23,03,52,11.30
2017,11,23,03,53,11.20
2017,11,23,03,54,11.20
2017,11,23,03,55,11.20
2017,11,23,03,56,11.10
2017,11,23,03,57,11.10
2017,11,23,03,58,11.10
2017,11,23,03,59,11.00
2017,11,23,04,00,10.90
2017,11,23,04,01,10.90
2017,11,23,04,02,10.90
2017,11,23,04,03,10.80
2017,11,23,04,04,10.80
2017,11,23,04,05,10.80
2017,11,23,04,06,10.80
2017,11,23,04,07,10.80
2017,11,23,04,08,10.70
2017,11,23,04,09,10.70
2017,11,23,04,10,10.70
2017,11,23,04,11,10.70
2017,11,23,04,12,10.60
2017,11,23,04,13,10.60
2017,11,23,04,14,10.60
2017,11,23,04,15,10.60
2017,11,23,04,16,10.50
2017,11,23,04,17,10.50
2017,11,23,04,18,10.50
2017,11,23,04,19,10.40
2017,11,23,04,20,10.40
2017,11,23,04,21,10.40
2017,11,23,04,22,10.30
2017,11,23,04,23,10.30
2017,11,23,04,24,10.30
2017,11,23,04,25,10.30
2017,11,23,04,26,10.20
2017,11,23,04,27,10.20
2017,11,23,04,28,10.20
2017,11,23,04,29,10.10
2017,11,23,04,30,10.10
2017,11,23,04,31,10.10
2017,11,23,04,32,10.10
2017,11,23,04,33,10.10
2017,11,23,04,34,10.00
2017,11,23,04,35,10.00
2017,11,23,04,36,10.00
2017,11,23,04,37,10.00
2017,11,23,04,38,9.90
2017,11,23,04,39,9.90
2017,11,23,04,40,9.90
2017,11,23,04,41,9.90
2017,11,23,04,42,9.90
2017,11,23,04,43,9.90
2017,11,23,04,44,9.80
2017,11,23,04,45,9.80
2017,11,23,04,46,9.80
2017,11,23,04,47,9.80
2017,11,23,04,48,9.80
2017,11,23,04,49,9.70
2017,11,23,04,50,9.70
2017,11,23,04,51,9.70
2017,11,23,04,52,9.70
2017,11,23,04,53,9.70
2017,11,23,04,54,9.70
2017,11,23,04,55,9.60
2017,11,23,04,56,9.60
2017,11,23,04,57,9.60
2017,11,23,04,58,9.60
2017,11,23,04,59,9.60
2017,11,23,05,00,9.60
2017,11,23,05,01,9.60
2017,11,23,05,02,9.60
2017,11,23,05,03,9.50
2017,11,23,05,04,9.50
2017,11,23,05,05,9.50
2017,11,23,05,06,9.60
2017,11,23,05,07,9.60
2017,11,23,05,08,9.60
2017,11,23,05,09,9.60
2017,11,23,05,10,9.50
2017,11,23,05,11,9.50
2017,11,23,05,12,9.50
2017,11,23,05,13,9.50
2017,11,23,05,14,9.50
2017,11,23,05,15,9.50
2017,11,23,05,16,9.40
2017,11,23,05,17,9.40
2017,11,23,05,18,9.40
2017,11,23,05,19,9.40
2017,11,23,05,20,9.40
2017,11,23,05,21,9.40
2017,11,23,05,22,9.40
2017,11,23,05,23,9.40
2017,11,23,05,24,9.40
2017,11,23,05,25,9.40
2017,11,23,05,26,9.40
2017,11,23,05,27,9.40
2017,11,23,05,28,9.40
2017,11,23,05,29,9.50
2017,11,23,05,30,9.50
2017,11,23,05,31,9.50
2017,11,23,05,32,9.50
2017,11,23,05,33,9.60
2017,11,23,05,34,9.50
2017,11,23,05,35,9.50
2017,11,23,05,36,9.50
2017,11,23,05,37,9.50
2017,11,23,05,38,9.40
2017,11,23,05,39,9.40
2017,11,23,05,40,9.40
2017,11,23,05,41,9.40
2017,11,23,05,42,9.40
2017,11,23,05,43,9.30
2017,11,23,05,44,9.30
2017,11,23,05,45,9.30
2017,11,23,05,46,9.30
2017,11,23,05,47,9.30
2017,11,23,05,48,9.20
2017,11,23,05,49,9.20
2017,11,23,05,50,9.20
2017,11,23,05,51,9.20
2017,11,23,05,52,9.20
2017,11,23,05,53,9.20
2017,11,23,05,54,9.20
2017,11,23,05,55,9.20
2017,11,23,05,56,9.20
2017,11,23,05,57,9.20
2017,11,23,05,58,9.20
2017,11,23,05,59,9.20
2017,11,23,06,00,9.20
2017,11,23,06,01,9.20
2017,11,23,06,02,9.10
2017,11,23,06,03,9.10
2017,11,23,06,04,9.10
2017,11,23,06,05,9.10
2017,11,23,06,06,9.10
2017,11,23,06,07,9.10
2017,11,23,06,08,9.10
2017,11,23,06,09,9.10
2017,11,23,06,10,9.10
2017,11,23,06,11,9.00
2017,11,23,06,12,9.00
2017,11,23,06,13,9.00
2017,11,23,06,14,9.00
2017,11,23,06,15,9.00
2017,11,23,06,16,8.90
2017,11,23,06,17,8.90
2017,11,23,06,18,8.90
2017,11,23,06,19,8.90
2017,11,23,06,20,8.90
2017,11,23,06,21,8.80
2017,11,23,06,22,8.80
2017,11,23,06,23,8.80
2017,11,23,06,24,8.80
2017,11,23,06,25,8.80
2017,11,23,06,26,8.80
2017,11,23,06,27,8.80
2017,11,23,06,28,8.80
2017,11,23,06,29,8.80
2017,11,23,06,30,8.70
2017,11,23,06,31,8.70
2017,11,23,06,32,8.70
2017,11,23,06,33,8.70
2017,11,23,06,34,8.60
2017,11,23,06,35,8.60
2017,11,23,06,36,8.60
2017,11,23,06,37,8.60
2017,11,23,06,38,8.60
2017,11,23,06,39,8.60
2017,11,23,06,40,8.50
2017,11,23,06,41,8.50
2017,11,23,06,42,8.50
2017,11,23,06,43,8.40
2017,11,23,06,44,8.40
2017,11,23,06,45,8.40
2017,11,23,06,46,8.40
2017,11,23,06,47,8.40
2017,11,23,06,48,8.50
2017,11,23,06,49,8.50
2017,11,23,06,50,8.50
2017,11,23,06,51,8.50
2017,11,23,06,52,8.50
2017,11,23,06,53,8.60
2017,11,23,06,54,8.60
2017,11,23,06,55,8.50
2017,11,23,06,56,8.50
2017,11,23,06,57,8.50
2017,11,23,06,58,8.40
2017,11,23,06,59,8.40
2017,11,23,07,00,8.40
2017,11,23,07,01,8.40
2017,11,23,07,02,8.40
2017,11,23,07,03,8.30
2017,11,23,07,04,8.30
2017,11,23,07,05,8.30
2017,11,23,07,06,8.30
2017,11,23,07,07,8.30
2017,11,23,07,08,8.30
2017,11,23,07,09,8.30
2017,11,23,07,10,8.30
2017,11,23,07,11,8.30
2017,11,23,07,12,8.30
2017,11,23,07,13,8.30
2017,11,23,07,14,8.20
2017,11,23,07,15,8.20
2017,11,23,07,16,8.20
2017,11,23,07,17,8.20
2017,11,23,07,18,8.20
2017,11,23,07,19,8.20
2017,11,23,07,20,8.20
2017,11,23,07,21,8.20
2017,11,23,07,22,8.20
2017,11,23,07,23,8.20
2017,11,23,07,24,8.20
2017,11,23,07,25,8.20
2017,11,23,07,26,8.20
2017,11,23,07,27,8.20
2017,11,23,07,28,8.20
2017,11,23,07,29,8.20
2017,11,23,07,30,8.20
2017,11,23,07,31,8.20
2017,11,23,07,32,8.20
2017,11,23,07,33,8.20
2017,11,23,07,34,8.20
2017,11,23,07,35,8.30
2017,11,23,07,36,8.30
2017,11,23,07,37,8.40
2017,11,23,07,38,8.40
2017,11,23,07,39,8.50
2017,11,23,07,40,8.50
2017,11,23,07,41,8.60
2017,11,23,07,42,8.60
2017,11,23,07,43,8.70
2017,11,23,07,44,8.70
2017,11,23,07,45,8.70
2017,11,23,07,46,8.80
2017,11,23,07,47,8.80
2017,11,23,07,48,8.80
2017,11,23,07,49,8.90
2017,11,23,07,50,8.90
2017,11,23,07,51,9.00
2017,11,23,07,52,9.10
2017,11,23,07,53,9.20
2017,11,23,07,54,9.30
2017,11,23,07,55,9.50
2017,11,23,07,56,9.70
2017,11,23,07,57,9.80
2017,11,23,07,58,10.00
2017,11,23,07,59,10.00
2017,11,23,08,00,10.10
2017,11,23,08,01,10.10
2017,11,23,08,02,10.10
2017,11,23,08,03,10.10
2017,11,23,08,04,10.20
2017,11,23,08,05,10.20
2017,11,23,08,06,10.20
2017,11,23,08,07,10.20
2017,11,23,08,08,10.10
2017,11,23,08,09,10.10
2017,11,23,08,10,10.00
2017,11,23,08,11,10.00
2017,11,23,08,12,9.90
2017,11,23,08,13,9.90
2017,11,23,08,14,9.90
2017,11,23,08,15,9.90
2017,11,23,08,16,9.90
2017,11,23,08,17,9.90
2017,11,23,08,18,9.80
2017,11,23,08,19,9.80
2017,11,23,08,20,9.80
2017,11,23,08,21,9.80
2017,11,23,08,22,9.80
2017,11,23,08,23,9.80
2017,11,23,08,24,9.70
2017,11,23,08,25,9.70
2017,11,23,08,26,9.70
2017,11,23,08,27,9.70
2017,11,23,08,28,9.60
2017,11,23,08,29,9.60
2017,11,23,08,30,9.60
2017,11,23,08,31,9.60
2017,11,23,08,32,9.60
2017,11,23,08,33,9.50
2017,11,23,08,34,9.50
2017,11,23,08,35,9.50
2017,11,23,08,36,9.50
2017,11,23,08,37,9.40
2017,11,23,08,38,9.40
2017,11,23,08,39,9.40
2017,11,23,08,40,9.40
2017,11,23,08,41,9.40
2017,11,23,08,42,9.40
2017,11,23,08,43,9.40
2017,11,23,08,44,9.50
2017,11,23,08,45,9.50
2017,11,23,08,46,9.50
2017,11,23,08,47,9.50
2017,11,23,08,48,9.50
2017,11,23,08,49,9.50
2017,11,23,08,50,9.40
2017,11,23,08,51,9.40
2017,11,23,08,52,9.40
2017,11,23,08,53,9.40
2017,11,23,08,54,9.40
2017,11,23,08,55,9.40
2017,11,23,08,56,9.30
2017,11,23,08,57,9.30
2017,11,23,08,58,9.30
2017,11,23,08,59,9.30
2017,11,23,09,00,9.30
2017,11,23,09,01,9.30
2017,11,23,09,02,9.30
2017,11,23,09,03,9.30
2017,11,23,09,04,9.40
2017,11,23,09,05,9.40
2017,11,23,09,06,9.40
2017,11,23,09,07,9.40
2017,11,23,09,08,9.40
2017,11,23,09,09,9.40
2017,11,23,09,10,9.40
2017,11,23,09,11,9.40
2017,11,23,09,12,9.40
2017,11,23,09,13,9.40
2017,11,23,09,14,9.40
2017,11,23,09,15,9.30
2017,11,23,09,16,9.30
2017,11,23,09,17,9.30
2017,11,23,09,18,9.30
2017,11,23,09,19,9.30
2017,11,23,09,20,9.30
2017,11,23,09,21,9.30
2017,11,23,09,22,9.20
2017,11,23,09,23,9.20
2017,11,23,09,24,9.20
2017,11,23,09,25,9.20
2017,11,23,09,26,9.20
2017,11,23,09,27,9.20
2017,11,23,09,28,9.20
2017,11,23,09,29,9.20
2017,11,23,09,30,9.20
2017,11,23,09,31,9.20
2017,11,23,09,32,9.20
2017,11,23,09,33,9.20
2017,11,23,09,34,9.20
2017,11,23,09,35,9.20
2017,11,23,09,36,9.10
2017,11,23,09,37,9.10
2017,11,23,09,38,9.00
2017,11,23,09,39,9.00
2017,11,23,09,40,9.00
2017,11,23,09,41,9.00
2017,11,23,09,42,9.00
2017,11,23,09,43,9.00
2017,11,23,09,44,9.00
2017,11,23,09,45,9.00
2017,11,23,09,46,9.00
2017,11,23,09,47,9.00
2017,11,23,09,48,9.00
2017,11,23,09,49,9.00
2017,11,23,09,50,9.10
2017,11,23,09,51,9.10
2017,11,23,09,52,9.10
2017,11,23,09,53,9.10
2017,11,23,09,54,9.10
2017,11,23,09,55,9.20
2017,11,23,09,56,9.20
2017,11,23,09,57,9.30
2017,11,23,09,58,9.30
2017,11,23,09,59,9.40
2017,11,23,10,00,9.40
2017,11,23,10,01,9.50
2017,11,23,10,02,9.60
2017,11,23,10,03,9.60
2017,11,23,10,04,9.70
2017,11,23,10,05,9.70
2017,11,23,10,06,9.70
2017,11,23,10,07,9.80
2017,11,23,10,08,9.80
2017,11,23,10,09,9.80
2017,11,23,10,10,9.80
2017,11,23,10,11,9.80
2017,11,23,10,12,9.80
2017,11,23,10,13,9.80
2017,11,23,10,14,9.90
2017,11,23,10,15,9.90
2017,11,23,10,16,9.90
2017,11,23,10,17,10.00
2017,11,23,10,18,10.10
2017,11,23,10,19,10.10
2017,11,23,10,20,10.20
2017,11,23,10,21,10.30
2017,11,23,10,22,10.30
2017,11,23,10,23,10.40
2017,11,23,10,24,10.50
2017,11,23,10,25,10.60
2017,11,23,10,26,10.70
2017,11,23,10,27,10.80
2017,11,23,10,28,10.80
2017,11,23,10,29,10.90
2017,11,23,10,30,10.90
2017,11,23,10,31,10.90
2017,11,23,10,32,11.00
2017,11,23,10,33,11.00
2017,11,23,10,34,11.10
2017,11,23,10,35,11.10
2017,11,23,10,36,11.20
2017,11,23,10,37,11.20
2017,11,23,10,38,11.30
2017,11,23,10,39,11.30
2017,11,23,10,40,11.40
2017,11,23,10,41,11.50
2017,11,23,10,42,11.60
2017,11,23,10,43,11.60
2017,11,23,10,44,11.70
2017,11,23,10,45,11.80
2017,11,23,10,46,11.80
2017,11,23,10,47,11.90
2017,11,23,10,48,11.90
2017,11,23,10,49,12.00
2017,11,23,10,50,12.00
2017,11,23,10,51,12.10
2017,11,23,10,52,12.20
2017,11,23,10,53,12.20
2017,11,23,10,54,12.20
2017,11,23,10,55,12.30
2017,11,23,10,56,12.30
2017,11,23,10,57,12.30
2017,11,23,10,58,12.40
2017,11,23,10,59,12.40
2017,11,23,11,00,12.40
2017,11,23,11,01,12.40
2017,11,23,11,02,12.40
2017,11,23,11,03,12.40
2017,11,23,11,04,12.40
2017,11,23,11,05,12.50
2017,11,23,11,06,12.50
2017,11,23,11,07,12.60
2017,11,23,11,08,12.60
2017,11,23,11,09,12.60
2017,11,23,11,10,12.60
2017,11,23,11,11,12.60
2017,11,23,11,12,12.60
2017,11,23,11,13,12.60
2017,11,23,11,14,12.60
2017,11,23,11,15,12.60
2017,11,23,11,16,12.60
2017,11,23,11,17,12.70
2017,11,23,11,18,12.70
2017,11,23,11,19,12.70
2017,11,23,11,20,12.70
2017,11,23,11,21,12.70
2017,11,23,11,22,12.70
2017,11,23,11,23,12.70
2017,11,23,11,24,12.60
2017,11,23,11,25,12.60
2017,11,23,11,26,12.60
2017,11,23,11,27,12.60
2017,11,23,11,28,12.60
2017,11,23,11,29,12.60
2017,11,23,11,30,12.60
2017,11,23,11,31,12.60
2017,11,23,11,32,12.70
2017,11,23,11,33,12.70
2017,11,23,11,34,12.70
2017,11,23,11,35,12.70
2017,11,23,11,36,12.70
2017,11,23,11,37,12.70
2017,11,23,11,38,12.70
2017,11,23,11,39,12.70
2017,11,23,11,40,12.70
2017,11,23,11,41,12.70
2017,11,23,11,42,12.70
2017,11,23,11,43,12.70
2017,11,23,11,44,12.70
2017,11,23,11,45,12.70
2017,11,23,11,46,12.70
2017,11,23,11,47,12.70
2017,11,23,11,48,12.70
2017,11,23,11,49,12.70
2017,11,23,11,50,12.70
2017,11,23,11,51,12.70
2017,11,23,11,52,12.70
2017,11,23,11,53,12.70
2017,11,23,11,54,12.70
2017,11,23,11,55,12.70
2017,11,23,11,56,12.70
2017,11,23,11,57,12.70
2017,11,23,11,58,12.70
2017,11,23,11,59,12.70
2017,11,23,12,00,12.70
2017,11,23,12,01,12.70
2017,11,23,12,02,12.80
2017,11,23,12,03,12.80
2017,11,23,12,04,12.80
2017,11,23,12,05,12.80
2017,11,23,12,06,12.80
2017,11,23,12,07,12.80
2017,11,23,12,08,12.80
2017,11,23,12,09,12.80
2017,11,23,12,10,12.80
2017,11,23,12,11,12.70
2017,11,23,12,12,12.70
2017,11,23,12,13,12.60
2017,11,23,12,14,12.60
2017,11,23,12,15,12.50
2017,11,23,12,16,12.50
2017,11,23,12,17,12.40
2017,11,23,12,18,12.40
2017,11,23,12,19,12.40
2017,11,23,12,20,12.40
2017,11,23,12,21,12.40
2017,11,23,12,22,12.40
2017,11,23,12,23,12.40
2017,11,23,12,24,12.40
2017,11,23,12,25,12.40
2017,11,23,12,26,12.50
2017,11,23,12,27,12.50
2017,11,23,12,28,12.60
2017,11,23,12,29,12.60
2017,11,23,12,30,12.70
2017,11,23,12,31,12.70
2017,11,23,12,32,12.70
2017,11,23,12,33,12.70
2017,11,23,12,34,12.80
2017,11,23,12,35,12.80
2017,11,23,12,36,12.80
2017,11,23,12,37,12.80
2017,11,23,12,38,12.80
2017,11,23,12,39,12.80
2017,11,23,12,40,12.80
2017,11,23,12,41,12.90
2017,11,23,12,42,12.80
2017,11,23,12,43,12.80
2017,11,23,12,44,12.90
2017,11,23,12,45,12.90
2017,11,23,12,46,12.90
2017,11,23,12,47,12.90
2017,11,23,12,48,12.90
2017,11,23,12,49,12.90
2017,11,23,12,50,13.00
2017,11,23,12,51,13.00
2017,11,23,12,52,13.00
2017,11,23,12,53,13.00
2017,11,23,12,54,13.00
2017,11,23,12,55,13.00
2017,11,23,12,56,12.90
2017,11,23,12,57,12.90
2017,11,23,12,58,12.90
2017,11,23,12,59,12.80
2017,11,23,13,00,12.80
2017,11,23,13,01,12.80
2017,11,23,13,02,12.70
2017,11,23,13,03,12.70
2017,11,23,13,04,12.70
2017,11,23,13,05,12.60
2017,11,23,13,06,12.60
2017,11,23,13,07,12.60
2017,11,23,13,08,12.60
2017,11,23,13,09,12.60
2017,11,23,13,10,12.60
2017,11,23,13,11,12.60
2017,11,23,13,12,12.60
2017,11,23,13,13,12.60
2017,11,23,13,14,12.60
2017,11,23,13,15,12.50
2017,11,23,13,16,12.50
2017,11,23,13,17,12.50
2017,11,23,13,18,12.50
2017,11,23,13,19,12.50
2017,11,23,13,20,12.50
2017,11,23,13,21,12.50
2017,11,23,13,22,12.50
2017,11,23,13,23,12.50
2017,11,23,13,24,12.50
2017,11,23,13,25,12.50
2017,11,23,13,26,12.50
2017,11,23,13,27,12.50
2017,11,23,13,28,12.50
2017,11,23,13,29,12.60
2017,11,23,13,30,12.60
2017,11,23,13,31,12.60
2017,11,23,13,32,12.60
2017,11,23,13,33,12.60
2017,11,23,13,34,12.60
2017,11,23,13,35,12.60
2017,11,23,13,36,12.60
2017,11,23,13,37,12.60
2017,11,23,13,38,12.60
2017,11,23,13,39,12.70
2017,11,23,13,40,12.70
2017,11,23,13,41,12.70
2017,11,23,13,42,12.80
2017,11,23,13,43,12.80
2017,11,23,13,44,12.80
2017,11,23,13,45,12.80
2017,11,23,13,46,12.90
2017,11,23,13,47,12.90
2017,11,23,13,48,12.90
2017,11,23,13,49,12.90
2017,11,23,13,50,12.90
2017,11,23,13,51,12.90
2017,11,23,13,52,12.90
2017,11,23,13,53,12.90
2017,11,23,13,54,12.90
2017,11,23,13,55,12.90
2017,11,23,13,56,12.90
2017,11,23,13,57,12.90
2017,11,23,13,58,12.90
2017,11,23,13,59,12.90
2017,11,23,14,00,13.00
2017,11,23,14,01,13.00
2017,11,23,14,02,13.10
2017,11,23,14,03,13.10
2017,11,23,14,04,13.10
2017,11,23,14,05,13.10
2017,11,23,14,06,13.10
2017,11,23,14,07,13.00
2017,11,23,14,08,13.00
2017,11,23,14,09,13.00
2017,11,23,14,10,12.90
2017,11,23,14,11,12.90
2017,11,23,14,12,12.90
2017,11,23,14,13,12.90
2017,11,23,14,14,12.80
2017,11,23,14,15,12.80
2017,11,23,14,16,12.80
2017,11,23,14,17,12.70
2017,11,23,14,18,12.70
2017,11,23,14,19,12.70
2017,11,23,14,20,12.70
2017,11,23,14,21,12.60
2017,11,23,14,22,12.60
2017,11,23,14,23,12.60
2017,11,23,14,24,12.60
2017,11,23,14,25,12.60
2017,11,23,14,26,12.60
2017,11,23,14,27,12.60
2017,11,23,14,28,12.60
2017,11,23,14,29,12.60
2017,11,23,14,30,12.50
2017,11,23,14,31,12.50
2017,11,23,14,32,12.40
2017,11,23,14,33,12.40
2017,11,23,14,34,12.40
2017,11,23,14,35,12.40
2017,11,23,14,36,12.40
2017,11,23,14,37,12.40
2017,11,23,14,38,12.30
2017,11,23,14,39,12.30
2017,11,23,14,40,12.40
2017,11,23,14,41,12.40
2017,11,23,14,42,12.40
2017,11,23,14,43,12.40
2017,11,23,14,44,12.40
2017,11,23,14,45,12.40
2017,11,23,14,46,12.30
2017,11,23,14,47,12.30
2017,11,23,14,48,12.40
2017,11,23,14,49,12.40
2017,11,23,14,50,12.40
2017,11,23,14,51,12.40
2017,11,23,14,52,12.40
2017,11,23,14,53,12.40
2017,11,23,14,54,12.40
2017,11,23,14,55,12.30
2017,11,23,14,56,12.30
2017,11,23,14,57,12.30
2017,11,23,14,58,12.30
2017,11,23,14,59,12.20
2017,11,23,15,00,12.20
2017,11,23,15,01,12.10
2017,11,23,15,02,12.00
2017,11,23,15,03,11.90
2017,11,23,15,04,11.90
2017,11,23,15,05,11.80
2017,11,23,15,06,11.70
2017,11,23,15,07,11.70
2017,11,23,15,08,11.60
2017,11,23,15,09,11.50
2017,11,23,15,10,11.40
2017,11,23,15,11,11.40
2017,11,23,15,12,11.30
2017,11,23,15,13,11.20
2017,11,23,15,14,11.20
2017,11,23,15,15,11.10
2017,11,23,15,16,11.00
2017,11,23,15,17,11.00
2017,11,23,15,18,10.90
2017,11,23,15,19,10.80
2017,11,23,15,20,10.80
2017,11,23,15,21,10.70
2017,11,23,15,22,10.70
2017,11,23,15,23,10.60
2017,11,23,15,24,10.60
2017,11,23,15,25,10.50
2017,11,23,15,26,10.50
2017,11,23,15,27,10.40
2017,11,23,15,28,10.40
2017,11,23,15,29,10.40
2017,11,23,15,30,10.40
2017,11,23,15,31,10.30
2017,11,23,15,32,10.30
2017,11,23,15,33,10.30
2017,11,23,15,34,10.30
2017,11,23,15,35,10.30
2017,11,23,15,36,10.30
2017,11,23,15,37,10.20
2017,11,23,15,38,10.20
2017,11,23,15,39,10.20
2017,11,23,15,40,10.20
2017,11,23,15,41,10.20
2017,11,23,15,42,10.20
2017,11,23,15,43,10.20
2017,11,23,15,44,10.20
2017,11,23,15,45,10.20
2017,11,23,15,46,10.20
2017,11,23,15,47,10.20
2017,11,23,15,48,10.20
2017,11,23,15,49,10.10
2017,11,23,15,50,10.10
2017,11,23,15,51,10.10
2017,11,23,15,52,10.10
2017,11,23,15,53,10.10
2017,11,23,15,54,10.00
2017,11,23,15,55,10.00
2017,11,23,15,56,10.00
2017,11,23,15,57,10.00
2017,11,23,15,58,10.00
2017,11,23,15,59,9.90
2017,11,23,16,00,9.90
2017,11,23,16,01,9.90
2017,11,23,16,02,9.90
2017,11,23,16,03,9.90
2017,11,23,16,04,9.80
2017,11,23,16,05,9.80
2017,11,23,16,06,9.80
2017,11,23,16,07,9.80
2017,11,23,16,08,9.70
2017,11,23,16,09,9.70
2017,11,23,16,10,9.60
2017,11,23,16,11,9.50
2017,11,23,16,12,9.40
2017,11,23,16,13,9.40
2017,11,23,16,14,9.30
2017,11,23,16,15,9.30
2017,11,23,16,16,9.20
2017,11,23,16,17,9.20
2017,11,23,16,18,9.20
2017,11,23,16,19,9.20
2017,11,23,16,20,9.10
2017,11,23,16,21,9.10
2017,11,23,16,22,9.10
2017,11,23,16,23,9.10
2017,11,23,16,24,9.10
2017,11,23,16,25,9.10
2017,11,23,16,26,9.10
2017,11,23,16,27,9.10
2017,11,23,16,28,9.00
2017,11,23,16,29,9.00
2017,11,23,16,30,8.90
2017,11,23,16,31,8.90
2017,11,23,16,32,8.90
2017,11,23,16,33,8.80
2017,11,23,16,34,8.80
2017,11,23,16,35,8.70
2017,11,23,16,36,8.70
2017,11,23,16,37,8.60
2017,11,23,16,38,8.60
2017,11,23,16,39,8.50
2017,11,23,16,40,8.50
2017,11,23,16,41,8.40
2017,11,23,16,42,8.40
2017,11,23,16,43,8.30
2017,11,23,16,44,8.30
2017,11,23,16,45,8.30
2017,11,23,16,46,8.30
2017,11,23,16,47,8.30
2017,11,23,16,48,8.20
2017,11,23,16,49,8.20
2017,11,23,16,50,8.20
2017,11,23,16,51,8.20
2017,11,23,16,52,8.20
2017,11,23,16,53,8.10
2017,11,23,16,54,8.10
2017,11,23,16,55,8.10
2017,11,23,16,56,8.10
2017,11,23,16,57,8.10
2017,11,23,16,58,8.10
2017,11,23,16,59,8.10
2017,11,23,17,00,8.10
2017,11,23,17,01,8.10
2017,11,23,17,02,8.10
2017,11,23,17,03,8.20
2017,11,23,17,04,8.20
2017,11,23,17,05,8.30
2017,11,23,17,06,8.30
2017,11,23,17,07,8.30
2017,11,23,17,08,8.30
2017,11,23,17,09,8.30
2017,11,23,17,10,8.30
2017,11,23,17,11,8.30
2017,11,23,17,12,8.30
2017,11,23,17,13,8.30
2017,11,23,17,14,8.30
2017,11,23,17,15,8.30
2017,11,23,17,16,8.30
2017,11,23,17,17,8.20
2017,11,23,17,18,8.20
2017,11,23,17,19,8.20
2017,11,23,17,20,8.10
2017,11,23,17,21,8.10
2017,11,23,17,22,8.10
2017,11,23,17,23,8.00
2017,11,23,17,24,8.00
2017,11,23,17,25,8.00
2017,11,23,17,26,7.90
2017,11,23,17,27,7.90
2017,11,23,17,28,7.90
2017,11,23,17,29,7.90
2017,11,23,17,30,7.80
2017,11,23,17,31,7.80
2017,11,23,17,32,7.80
2017,11,23,17,33,7.80
2017,11,23,17,34,7.70
2017,11,23,17,35,7.70
2017,11,23,17,36,7.70
2017,11,23,17,37,7.70